STARLINK-36497, 67323

Orbit data source: Space-Track

STARLINK-36497, 67323 is a payload satellite owned by SpaceX/Seattle (US) in LEO that was launched on Sun, 04 Jan 2026 UTC via an FALCON 9 launch vehicle from the Air Force Eastern Test Range (AFETR). Payload-class satellites include a variety of spacecraft equipped with specific instruments for various scientific and technological missions. These include communications satellites like Starlink; space stations such as the ISS; scientific satellites like the Hubble; Earth observation satellites from companies like Planet Labs, Umbra, and HawkEye 360; GPS; miniature CubeSats for education and research; and military/defense satellites.

Loading next visibility...
Identifier
67323, 2026-002U
Orbit
LEO
Country
Flag of USUS
Related business
Manufacturer
SpaceX/Seattle
Mission
Operational Commercial Communications
Bus & Motor
STARLINK V2MO, Unknown motor
Mass
575 kg wet, ~530 kg dry
Launch date (UTC)
2026-01-04 (5 months ago)
Launch vehicle
FALCON 9
Launch site
Air Force Eastern Test Range (AFETR)
Object type
Payload
Rocket body
Debris
Shape & HBR
Box + 2 Pan, 17.7 m
Radar Cross Section
36.964 m², Large (>1 m²)

Expand to show TLE details & history
Last TLE update: 21 hours ago

TLE from 21 hours ago
0 STARLINK-36497
1 67323U 26002U   26170.98601370  .00010933  00000-0  40605-3 0  9995
2 67323  43.0009 107.5619 0001078 262.4773  97.5957 15.27595070 26781
Epoch: 2026-06-19T23:39Z
TLE epoch observation values (Epoch: 2026-06-19T23:39:51.583Z)
Latitude
0.00003°
Longitude
-155.61012°
Altitude
482.877 km
Speed
7.626 km/s
True Right ascension
07h 10m 14s
True Declination
0° 00' 00"
Sunlit
Object was in daylight at epoch
Visualization orbit readout
Latitude
Unknown
Longitude
Unknown
Altitude
Unknown
Speed
Unknown
Apparent Right ascension
Unknown
Apparent Declination
Unknown
Sunlit
N/A
Visualization observer readout
Local Sidereal Time
07:21:35
Azimuth
Unknown
Elevation
Unknown
Doppler factor
Unknown
Orbital elements
Apogee altitude
485.689 km
Perigee altitude
484.209 km
Semi-major axis
6,863.086 km
Eccentricity
0.00011
Inclination
43.0009°
RAAN
107.5619°
Arg. of periapsis
262.4773°
True anomaly
97.60794°
Mean anomaly
97.5957°
Eccentric anomaly
97.60182°
Mean motion
3.81737 °/min
Orbital period
94.31 mins
BSTAR
0.00040605
Loading maneuver chart data...
Computing Atmospheric mass density...
Loading historical data...
Loading historical data...
Loading historical data...
Loading historical data...
Loading historical data...
Loading historical data...
Loading historical data...

Documentation

Showing up to 5 results
|